#timestamp,LO_Frequency,Hit,StdDev 
1639126815.3,286047000.3,N
1639126835.1,286047000.9,N
1639126855.8,286047000.6,N
1639126875.7,286046999.9,N
1639126895.5,286047002.4,N
1639126915.4,286047001.0,N
1639126935.2,286047000.8,N
1639126955.0,286046998.2,N
1639126955.9,286046998.2,N
1639126975.8,286046999.1,N
1639126995.6,286046997.8,N
1639127015.5,286046996.1,Y
1639127035.3,286046995.7,P
1639127055.1,286046994.2,N
1639127075.9,286046996.3,N
1639127095.7,286046996.4,N
1639127115.5,286046995.6,N
1639127135.4,286046996.1,N
1639127155.2,286046995.7,N
1639127175.1,286046993.4,Y
1639127176.0,286046993.4,P
1639127195.8,286047000.8,N
1639127215.6,286047000.4,N
1639127235.5,286047000.0,N
1639127255.3,286047000.0,N
1639127275.1,286047000.1,N
1639127295.9,286047000.6,N
1639127315.7,286046998.3,N
1639127335.6,286046998.3,N
1639127355.4,286046998.1,N
1639127375.3,286047000.9,N
1639127395.1,286046998.4,N
1639127396.0,286046998.4,N
1639127415.8,286047000.9,N
1639127435.7,286047000.6,N
1639127455.5,286047000.3,N
1639127475.3,286046998.1,N
1639127495.2,286047001.1,N
1639127515.0,286046998.3,N
1639127515.9,286046998.3,N
1639127535.8,286047001.0,N
1639127555.6,286047001.0,N
1639127575.4,286047001.2,N
1639127595.3,286047000.8,N
1639127615.1,286047000.5,N
1639127635.9,286047001.1,N
1639127655.7,286046998.5,N
1639127675.5,286047000.8,N
1639127695.4,286047000.8,N
1639127715.2,286046998.8,N
1639127735.0,286046998.4,N
1639127735.9,286046998.4,N
1639127755.8,286046998.9,N
1639127775.6,286046999.4,N
1639127795.5,286046998.3,N
1639127815.3,286046998.5,N
1639127835.1,286047000.4,N
1639127855.9,286047002.8,N
1639127875.7,286047000.2,N
1639127895.5,286047002.7,N
1639127915.4,286046999.7,N
1639127935.2,286046999.8,N
1639127955.1,286047000.1,N
1639127956.0,286047000.1,N
1639127975.8,286047002.1,N
1639127995.6,286047002.8,N
1639128015.5,286047002.1,N
1639128035.3,286047002.3,N
1639128055.2,286047002.4,N
1639128075.9,286047002.0,N
1639128095.7,286047004.4,Y
1639128115.6,286047004.2,P
1639128135.4,286047003.7,N
1639128155.2,286047003.6,N
1639128175.1,286047004.2,N
1639128176.0,286047004.2,Y
1639128195.8,286047001.2,P
1639128215.7,286046999.1,N
1639128235.5,286046998.9,N
1639128255.3,286046995.5,N
1639128275.2,286046995.1,N
1639128295.0,286046995.3,N
1639128295.9,286046995.3,N
1639128315.8,286046997.9,N
1639128335.6,286046996.7,N
1639128355.4,286046997.8,N
1639128375.3,286046999.6,N
1639128395.1,286046996.8,N
1639128415.8,286046999.2,N
1639128435.7,286046998.3,N
1639128455.5,286047000.7,N
1639128475.4,286046998.6,N
1639128495.2,286046998.5,N
1639128515.0,286047000.2,N
1639128515.9,286047000.2,N
1639128535.8,286047000.3,N
1639128555.6,286047000.6,N
1639128575.5,286046998.3,N
1639128595.3,286047000.8,N
1639128615.1,286047000.5,N
1639128635.9,286046999.2,N
1639128655.7,286046998.4,N
1639128675.5,286046998.1,N
1639128695.4,286046999.2,N
1639128715.2,286046997.2,N
1639128735.1,286046999.0,N
1639128736.0,286046999.0,N
1639128755.8,286046998.1,N
1639128775.6,286046998.7,N
1639128795.5,286046999.0,N
1639128815.3,286047000.6,N
1639128835.1,286046998.6,N
1639128855.9,286046998.6,N
1639128875.7,286046998.7,N
1639128895.6,286046998.9,N
1639128915.4,286046999.4,N
1639128935.2,286046998.8,N
1639128955.1,286047000.4,N
1639128956.0,286047000.4,N
1639128975.8,286046999.8,N
1639128995.6,286046999.8,N
1639129015.5,286047000.3,N
1639129035.3,286047000.0,N
1639129055.2,286047002.0,N
1639129075.9,286047001.9,N
1639129095.7,286046999.8,N
1639129115.6,286047000.4,N
1639129135.4,286046998.9,N
1639129155.3,286047001.2,N
1639129175.1,286046998.1,N
1639129176.0,286046998.1,N
1639129195.8,286047000.9,N
1639129215.7,286047000.9,N
1639129235.5,286047001.2,N
1639129255.3,286046998.1,N
1639129275.2,286046998.1,N
1639129295.0,286047001.2,N
1639129295.9,286047001.2,N
1639129315.8,286046998.5,N
1639129335.6,286047000.8,N
1639129355.5,286046999.7,N
1639129375.3,286047000.3,N
1639129395.1,286047000.5,N
1639129415.9,286047001.1,N
1639129435.7,286046998.6,N
1639129455.5,286046997.3,N
1639129475.4,286046996.6,N
1639129495.2,286046998.8,N
1639129515.1,286046999.3,N
1639129516.0,286046999.3,N
1639129535.8,286046998.4,N
1639129555.6,286047000.8,N
1639129575.5,286046999.9,N
1639129595.3,286047001.0,N
1639129615.1,286047000.8,N
1639129635.9,286047000.7,N
1639129655.7,286047000.5,N
1639129675.6,286047001.1,N
1639129695.4,286047001.2,N
1639129715.2,286047000.0,N
1639129735.1,286047000.1,N
1639129736.0,286047000.1,N
1639129755.8,286047002.5,N
1639129775.6,286047001.5,N
1639129795.5,286047001.7,N
1639129815.3,286047001.3,N
1639129835.2,286047002.2,N
1639129855.9,286047002.8,N
1639129875.7,286047000.9,N
1639129895.6,286047000.9,N
1639129915.4,286047000.1,N
1639129935.2,286047002.1,N
1639129955.1,286047001.3,N
1639129956.0,286047001.3,N
1639129975.8,286047004.0,N
1639129995.7,286047003.8,N
1639130015.5,286047006.0,Y
1639130035.4,286047003.6,P
1639130055.2,286047004.3,P
1639130075.0,286047003.7,N
1639130075.9,286047003.7,N
1639130095.8,286047003.3,N
1639130115.6,286047002.9,N
1639130135.4,286047004.3,Y
1639130155.3,286047001.2,P
1639130175.1,286046999.6,N
1639130195.9,286046998.9,N
1639130215.7,286046998.2,N
1639130235.5,286046998.3,N
1639130255.4,286046997.9,N
1639130275.2,286046995.3,N
1639130295.0,286046995.8,N
1639130295.9,286046995.8,N
1639130315.8,286046995.0,N
1639130335.6,286046996.9,N
1639130355.5,286046999.1,N
1639130375.3,286046999.1,N
1639130395.1,286046996.7,N
